Location: *
(23.5860°S, 65.4036°W)
Time: 19:40:33
(UTC+00:00)

Cosmos 2150 Rocket - Pass Details

Date: 25 August 2019
Orbit: 748 x 809 km, 74.0° (Epoch: 18 October)

Event Time Altitude Azimuth Distance (km) Brightness Sun altitude
Rises 23:45:19 0° 192° (SSW) 3,250 7.4 -22.8°
Reaches altitude 10° 23:47:44 10° 189° (S) 2,310 6.5 -23.4°
Enters shadow 23:52:50 69° 115° (ESE) 811 3.8 -24.5°
